CHINASAT 1A (ZX 1A)

Last updated on Jan. 19, 2020, 4:37 a.m. UTC

1 37804U 11047A   20018.54717005 -.00000342  00000-0  00000-0 0  9995
2 37804   0.0398 217.4972 0003004 140.3414  86.4005  1.00272539 30599
UTC
Height (km)
Latitude
Longitude
Inclination
Orbital Period
UTC large
Height (km)
Speed (km/s)
/
Latitude / Longitude
Inclination (degrees)
Orbital Period (minutes)
Azimuth
Elevation
Range (km)
Doppler Factor
iOS Compass Heading
iOS Angle

Next 30 passes for location: Hong Kong

Rise time Rise Azimuth (degrees) Set time Set Azimuth (degrees) Duration Max altitude (degrees)

No matching passes for this satellites